Terminal Aerodrome Forecast
Issued by NWS Billings, MT

Home | Current Version | Previous Version | Text Only | Print | Product List | Glossary On
Versions: 1 2 3 4 5 6 7 8 9 10 11 12
000
FTUS45 KBYZ 201125
TAFSHR
TAF
KSHR 201125Z 2012/2112 24007KT P6SM SCT080 BKN200
     FM210300 24015G30KT P6SM SCT150
     FM211000 25008KT P6SM SCT150=

USA.gov is the U.S. government's official web portal to all federal, state and local government web resources and services.